Frederick, OK

9:33 PM CST on January 16, 2018 (GMT -0600)
Frederick Municipal

Weather History for KFDR - March, 2014

Change the Weather History Date:

Thursday, March 6, 2014

  Actual Average (KLTS) Record (KLTS)
Temperature  
Mean Temperature 42 °F -  
Max Temperature 55 °F 59 °F 85 °F (2017)
Min Temperature 28 °F 33 °F 15 °F (2003)
Degree Days  
Heating Degree Days 24    
Moisture  
Dew Point 33 °F    
Average Humidity 80    
Maximum Humidity 100    
Minimum Humidity 51    
Precipitation  
Precipitation 0.40 in - - ()
Sea Level Pressure  
Sea Level Pressure 30.15 in    
Wind  
Wind Speed 7 mph (NNE)    
Max Wind Speed 13 mph    
Max Gust Speed -    
Visibility 6 miles    
Events      
Averages and records for this station are not official NWS values.
T = Trace of Precipitation, MM = Missing Value Source: NWS Daily Summary

Daily Weather History Graph

Daily Weather History Graph

Search for Another Location

Airport or City:

Trip Planner

Search our weather history database for the weather conditions in past years. The results will help you decide how hot, cold, wet, or windy it might be!

Date:

Astronomy

Mar. 06, 2014 Rise Set
Actual Time 6:58 AM CST 6:36 PM CST
Civil Twilight 6:33 AM CST 7:01 PM CST
Nautical Twilight 6:04 AM CST 7:30 PM CST
Astronomical Twilight 5:35 AM CST 7:59 PM CST
Moon 10:22 AM CST (3/6) No Moon Set
Length of Visible Light 12h 28m
Length of Day
11h 37m
Waxing Crescent, 32% of the Moon is Illuminated
Mar 6
Waxing Crescent
Mar 8
First Quarter
Mar 16
Full
Mar 23
Last Quarter
Mar 30
New

Hourly Weather History & Observations

Time (CST) Temp. Windchill Dew Point Humidity Pressure Visibility Wind Dir Wind Speed Gust Speed Precip Events Conditions
12:53 AM 33.1 °F 25.5 °F 32.0 °F 96% 30.23 in 4.0 mi North 9.2 mph - N/A   Partly Cloudy
1:53 AM 32.0 °F 24.8 °F 30.0 °F 92% 30.24 in 3.0 mi North 8.1 mph - N/A   Mostly Cloudy
2:53 AM 32.0 °F 24.2 °F 30.0 °F 92% 30.23 in 3.0 mi North 9.2 mph - N/A   Clear
3:42 AM 30.2 °F 26.7 °F 28.4 °F 93% 30.21 in 2.5 mi NNW 3.5 mph - N/A   Clear
3:53 AM 28.9 °F 25.2 °F 28.0 °F 96% 30.22 in 2.5 mi NNW 3.5 mph - N/A   Clear
4:53 AM 28.0 °F - 27.0 °F 96% 30.23 in 2.5 mi Calm Calm - N/A   Clear
5:18 AM 28.4 °F 23.3 °F 28.4 °F 100% 30.21 in 3.0 mi NNW 4.6 mph - N/A   Clear
5:53 AM 28.0 °F 20.8 °F 26.1 °F 92% 30.23 in 3.0 mi NNW 6.9 mph - N/A   Clear
6:53 AM 28.0 °F 20.0 °F 26.1 °F 92% 30.24 in 4.0 mi NW 8.1 mph - N/A   Clear
7:20 AM 28.4 °F 22.2 °F 26.6 °F 93% 30.21 in 2.5 mi North 5.8 mph - N/A   Scattered Clouds
7:30 AM 28.4 °F 21.2 °F 26.6 °F 93% 30.21 in 3.0 mi North 6.9 mph - N/A   Partly Cloudy
7:53 AM 32.0 °F 25.6 °F 28.9 °F 88% 30.23 in 3.0 mi North 6.9 mph - N/A   Clear
8:23 AM 33.8 °F 27.0 °F 30.2 °F 87% 30.23 in 4.0 mi NNW 8.1 mph - N/A   Mostly Cloudy
8:53 AM 36.0 °F 30.3 °F 32.0 °F 86% 30.25 in 4.0 mi North 6.9 mph - N/A   Overcast
9:53 AM 39.0 °F 34.8 °F 34.0 °F 82% 30.26 in 10.0 mi WNW 5.8 mph - N/A   Overcast
10:53 AM 39.9 °F - 35.1 °F 83% 30.24 in 8.0 mi Calm Calm - N/A   Overcast
11:53 AM 42.1 °F - 35.1 °F 76% 30.22 in - Calm Calm - 0.02 in   Overcast
12:53 PM 44.1 °F 42.5 °F 36.0 °F 73% 30.19 in - Variable 3.5 mph - 0.02 in   Overcast
1:44 PM 46.4 °F 45.2 °F 37.4 °F 71% 30.14 in 10.0 mi West 3.5 mph - 0.04 in   Scattered Clouds
1:53 PM 48.0 °F - 37.9 °F 68% 30.14 in 10.0 mi South 5.8 mph - 0.11 in   Scattered Clouds
2:53 PM 51.1 °F - 37.9 °F 61% 30.10 in 10.0 mi South 5.8 mph - 0.25 in   Clear
3:53 PM 54.0 °F - 37.9 °F 55% 30.05 in 10.0 mi SSE 9.2 mph - N/A   Clear
4:53 PM 55.9 °F - 37.9 °F 51% 30.01 in 10.0 mi SE 12.7 mph - N/A   Clear
5:53 PM 55.0 °F - 37.0 °F 51% 29.99 in 10.0 mi SE 10.4 mph - N/A   Clear
6:53 PM 46.9 °F - 36.0 °F 66% 30.00 in 10.0 mi SE 8.1 mph - N/A   Clear
7:53 PM 43.0 °F 37.7 °F 35.1 °F 74% 30.01 in 10.0 mi SE 9.2 mph - N/A   Clear
8:53 PM 42.1 °F 35.7 °F 35.1 °F 76% 30.00 in 10.0 mi SE 11.5 mph - N/A   Clear
9:53 PM 43.0 °F 36.4 °F 35.1 °F 74% 29.99 in 10.0 mi SE 12.7 mph - N/A   Clear
10:53 PM 41.0 °F 34.7 °F 35.1 °F 79% 29.97 in 9.0 mi SE 10.4 mph - N/A   Clear
11:53 PM 41.0 °F 35.2 °F 35.1 °F 79% 29.95 in 10.0 mi SE 9.2 mph - N/A   Clear